Creek Data

    Home     View Charts     View Raw Data     Messages

ID Distance Battery Voltage Battery Current Internal Temp Internal Humidity External Temp Solar Input rssi snr Time Stamp Record
64657 14.8 3.85 38 46 49 48 4.5 -75 9 01/28/2026 08:00 AM 47418
64656 14.9 3.76 11 45 49 46 4.5 -77 8 01/28/2026 07:45 AM 47417
64655 14.8 3.69 0 45 50 46 4.5 -76 9 01/28/2026 07:30 AM 47416
64654 14.8 3.66 -9 45 50 47 4.5 -76 8 01/28/2026 07:15 AM 47415
64653 14.9 3.67 -5 45 50 46 1.5 -76 9 01/28/2026 07:00 AM 47414
64652 14.9 3.77 -5 45 50 46 0 -76 8 01/28/2026 06:45 AM 47413
64651 14.8 3.67 -5 45 51 47 0 -76 8 01/28/2026 06:30 AM 47412
64650 14.8 3.67 -5 46 51 46 0 -77 8 01/28/2026 06:15 AM 47411
64649 14.9 3.68 -5 46 51 47 0.1 -77 8 01/28/2026 06:00 AM 47410
64648 14.9 3.67 -5 47 50 47 0 -76 9 01/28/2026 05:45 AM 47409
64647 14.8 3.78 -5 48 50 48 0 -75 8 01/28/2026 05:15 AM 47407
64646 14.8 3.68 -35 48 50 48 0 -76 8 01/28/2026 05:00 AM 47406
64645 14.8 3.68 -5 48 50 48 0 -76 8 01/28/2026 04:45 AM 47405
64644 14.8 3.68 -5 47 50 48 0 -76 8 01/28/2026 04:30 AM 47404
64643 14.8 3.68 -5 47 50 47 0 -76 8 01/28/2026 04:15 AM 47403
64642 14.9 3.78 -5 47 50 48 0 -76 8 01/28/2026 04:00 AM 47402
64641 14.9 3.68 -5 48 50 48 0 -76 8 01/28/2026 03:45 AM 47401
64640 14.8 3.68 -5 48 50 49 0 -77 9 01/28/2026 03:30 AM 47400
64639 14.8 3.68 -5 49 50 49 0 -87 7 01/28/2026 03:15 AM 47399
64638 14.8 3.78 -5 49 50 50 0 -91 8 01/28/2026 03:00 AM 47398
64637 14.8 3.68 -5 49 50 50 0 -82 8 01/28/2026 02:45 AM 47397
64636 14.8 3.68 -5 48 50 50 0 -81 7 01/28/2026 02:30 AM 47396
64635 14.8 3.68 -5 48 50 49 0 -82 7 01/28/2026 02:15 AM 47395
64634 14.8 3.79 -5 48 50 49 0.1 -81 8 01/28/2026 02:00 AM 47394
64633 14.8 3.69 -5 48 50 49 0 -82 6 01/28/2026 01:45 AM 47393